Zurück zum Katalog

HULIANWANG DIGUI-145

AktivKommunikationLEO
NORAD 67443·PAYLOAD·🇨🇳 China

Gestartet Jan 13, 2026 von Wenchang Space Launch Site

Loading…

Nächste Überflüge (nächste 24 Stunden)

TLE

AktuellSource: Space-Track

Epoche: Sep 14, 2026, 13:51 UTC

1 67443U 26007J   26257.57765121 -.00000084  00000-0  86114-4 0  9992
2 67443  50.0084 124.9429 0000418   7.6950 352.3929 13.29329489 32686

Verfolge HULIANWANG DIGUI-145 in Echtzeit mit AllMySat

Download on the App Store